星链-33964 (STARLINK-33964)

导读

STARLINK-33964是美国于2025年5月23日发射的星链卫星,星链计划是美国太空探索技术公司打造的低轨卫星互联网项目,旨在为全球提供高速低延迟宽带网络服务。该卫星入轨后,将参与星链星座组网,进一步扩大星链系统全球覆盖范围,提升星座服务的稳定性与容量。

Basic Information
目录编号:
64118
目录名称:
STARLINK-33964
国际标识:
2025-110Y
轨道中心:
EARTH
卫星名称:
星链-33964
卫星全名:
星链-33964 (STARLINK-33964)
卫星状态:
在轨 (已飞行387 天)
发射日期:
2025-05-23 UTC
国别 :
美国 (US)
星等 :
--
Orbit Information
数据来源 国际轨道数据 AOE轨道数据
星历时间 2026-06-14T00:17:45+0800
13小时前
查看轨道信息
2026-06-09T07:00:00+0800
5天前
查看轨道信息
半长轴 6848.794km 6848.798km
偏心率 0.0001621 0.0001499
轨道倾角 53.159° 53.158°
近地点辐角 30.189° 47.247°
升交点赤经 300.562° 322.545°
平近点角 329.920° 187.924°
近地点 469.546km 469.634km
远地点 471.768km 471.688km
周期 94.011分钟 94.012分钟
每日圈数 15.317279 15.317267
Detailed Information
固有亮度:
5
最大亮度:
2.5
卫星平台:
Starlink V1.0
覆盖范围:
全球
运营商:
太空探索技术公司
运营商所在国:
美国
制造商(研发单位):
太空探索技术公司
制造商所在国:
美国
使用方式:
暂无
Satellite Introduction
Starlink 计划是 SpaceX 推出的全球卫星互联网项目,通过发射低轨道卫星,为全球尤其是偏远地区提供高速、低延迟的互联网服务。自 2019 年起,Starlink 已部署数千颗卫星,旨在缩小全球数字鸿沟,推动互联网普及。该项目还为军事、航空等行业提供通信支持,带来广泛经济效益。
2D Orbit Map
3D Orbit Map
Orbit Altitude Analysis Chart
Orbit Inclination Analysis Chart
Orbit Comprehensive Analysis Chart
View Comprehensive Chart